www.pogodaiklimat.ru

Погода и климат >> Архив погоды >> Пакистан >> Тимергара


ПОГОДА в Тимергаре

  • Прогноз погоды в Тимергаре
  • Монитор погоды в Тимергаре

АРХИВ ПОГОДЫ в Тимергаре

Время (UTC), дата Ветер
(напр.,м/с)
 
Видим.   Явления Облачность Т
(С)
Тd
(С)
f
(%)
Тe
(С)
Тes
(С)
Комфортность P
(гПа)
Po
(гПа)
Тmin
(С)
Tmax
(С)
R
(мм)
R24
(мм)
S
(см)
06 8.09 С 1 10 км ясно +30.0 +17.1 46 +34 +51 опасность
солнечного
удара
968.1 919.3
09 8.09 Ю 1 10 км ясно +35.0 +17.1 35 +38 +54 опасность
солнечного
удара
966.4 918.5
12 8.09 Ю 1 10 км ясно +35.0 +18.0 37 +39 +41 очень
душно
964.6 916.8 +37.0
00 9.09 С 1 4000 м ясно +23.0 +19.3 80 +29 +29 очень
душно
967.3 917.4
03 9.09 штиль 0 10 км ясно +23.5 +19.0 76 +28 +33 душно 968.2 918.5 +22.5
12 9.09 Ю 1 10 км ясно +36.5 +19.1 36 +41 +43 опасность
перегрева
960.5 913.1 +38.0
03 10.09 штиль 0 10 км ясно +25.5 +18.8 66 +30 +35 душно 966.2 916.9 +24.5
06 10.09 Ю 11 10 км 4/4 900 м
[Sc]
+32.5 +18.5 43 +37 +37 очень
душно
965.4 917.2
12 10.09 Ю 1 10 км 4/4 900 м
[Sc]
+36.0 +21.1 42 +43 +44 опасность
перегрева
960.5 913.0 +37.5
15 10.09 0 н/о
18 10.09 0 н/о
00 11.09 С 1 4000 м 6/4 900 м
[Sc As op]
+24.0 +19.5 76 +29 +29 душно 964.8 915.2
03 11.09 штиль 0 10 км 4/4 900 м
[Sc]
+24.5 +19.3 73 +30 +33 очень
душно
966.1 916.7 +23.0
06 11.09 Ю 1 10 км 4/4 900 м
[Sc]
+33.0 +20.0 46 +39 +49 очень
душно
966.2 917.7
09 11.09 Ю 1 10 км 4/4 900 м
[Sc]
+37.0 +20.7 39 +44 +53 опасность
перегрева
963.7 916.2
12 11.09 Ю 1 10 км 4/4 900 м
[Sc]
+36.5 +20.9 40 +43 +44 опасность
перегрева
962.2 914.8 +38.5
00 12.09 С 1 4000 м 4/4 900 м
[Sc]
+25.5 +20.4 73 +31 +31 очень
душно
966.2 916.9
03 12.09 штиль 0 10 км 4/4 900 м
[Sc]
+26.0 +20.1 70 +32 +35 очень
душно
967.7 918.3 +25.0
06 12.09 Ю 1 10 км 4/4 900 м
[Sc]
+33.5 +20.6 47 +40 +51 опасность
солнечного
удара
966.8 918.7
09 12.09 Ю 1 10 км 4/4 900 м
[Sc]
+37.0 +20.7 39 +44 +52 опасность
перегрева
964.7 917.1
12 12.09 Ю 1 10 км 4/4 900 м
[Sc]
+37.0 +21.5 41 +45 +46 опасность
перегрева
962.9 915.4 +39.0
00 13.09 С 1 4000 м 4/4 900 м
[Sc]
+27.0 +19.6 64 +33 +33 очень
душно
967.4 918.2
03 13.09 штиль 0 10 км 4/4 900 м
[Sc]
+27.5 +19.4 61 +33 +36 очень
душно
967.9 918.9 +26.0
06 13.09 Ю 1 10 км 4/4 900 м
[Sc]
+33.0 +20.0 46 +39 +49 очень
душно
967.9 919.6
09 13.09 Ю 1 10 км 6/4 900 м
[Sc As op]
+35.0 +20.8 44 +42 +49 опасность
перегрева
966.7 918.8
12 13.09 Ю 1 10 км 4/4 900 м
[Sc]
+34.0 +20.4 45 +41 +42 опасность
перегрева
964.8 916.8 +36.5
00 14.09 С 1 4000 м 4/4 900 м
[Sc]
+24.5 +17.6 65 +29 +29 душно 969.3 919.6
03 14.09 штиль 0 10 км 4/4 900 м
[Sc]
+25.0 +17.3 62 +29 +32 душно 970.2 920.5 +24.0
06 14.09 Ю 1 10 км ясно +32.0 +15.9 38 +35 +51 опасность
солнечного
удара
969.2 920.7
09 14.09 Ю 1 10 км ясно +35.0 +16.1 32 +37 +52 опасность
солнечного
удара
967.0 919.0
12 14.09 Ю 1 10 км 4/4 900 м
[Sc]
+35.0 +17.1 35 +38 +39 очень
душно
965.1 917.2 +37.0
00 15.09 С 1 4000 м 4/4 900 м
[Sc]
+25.5 +17.9 63 +30 +30 душно 969.4 919.9
03 15.09 штиль 0 10 км ясно +26.0 +17.6 60 +30 +35 душно 970.2 920.7 +25.0

 

Местоположение метеостанции Тимергара (Пакистан): широта 34.83 долгота 71.82 высота над уровнем моря 786 м.

В архиве по умолчанию представлена погода в Тимергаре за последнюю неделю. Архивные данные за месяц целиком и за предыдущие месяцы, начиная с января 2011 года, Вы можете получить, выбрав интересующий диапазон дат из раскрывающегося списка и нажав кнопку "Ввод!".


*Определитесь, кто Вы:
робот инопланетянин человек

Внимание! Время в таблицах - всемирное. Для получения местного времени необходимо прибавить поправку, которая равна 5 ч.

Смотрите также архив погоды в соседних городах и на ближайших метеорологических станциях:

Погода в Дире (Пакистан) (41 км)
Погода в Сайду-Шарифе (Пакистан) (50 км)
Погода в Мир Хани (Пакистан) (75 км)
Погода в Дроше (Пакистан) (82 км)
Погода в Рисалпуре (Пакистан) (85 км)
Погода в Пешаваре (Пакистан) (93 км)
Погода в Пешаваре (Пакистан) (93 км)
Погода в Малам Джабба (Пакистан) (99 км)
Погода в Паттане (Пакистан) (112 км)
Погода в Черате (Пакистан) (112 км)

Пояснения к столбцам:

Ветер - указаны скорость ветра в м/с - средняя за 10 мин, порывы в срок и между сроками (в фигурных скобках) и направление, откуда дует ветер: С - северный, СВ - северо-восточный, В - восточный, ЮВ - юго-восточный, Ю - южный, ЮЗ - юго-западный, З - западный, СЗ - северо-западный.
Видимость - горизонтальная дальность видимости в метрах или километрах. При видимости от 1 до 10 км при отсутствии осадков обычно наблюдается дымка, при ухудшении видимости до 1 км и менее - туман. В сухую погоду видимость может ухудшаться дымом, пылью или мглою.
Явления - указаны атмосферные явления, наблюдавшиеся в срок или в последний час перед сроком; фигурными скобками обозначены явления, наблюдавшиеся между сроками (за 1-3 часа до срока); квадратными скобками обозначены град или гололедные отложения с указанием их диаметра в мм.
Облачность - указаны через наклонную черту общая и нижняя облачность в баллах и высота нижней границы облаков в метрах; квадратными скобками обозначены формы облаков: Ci - перистые, Cs - перисто-слоистые, Cc - перисто-кучевые, Ac - высококучевые, As - высокослоистые, Sc - слоисто-кучевые, Ns - слоисто-дождевые, Cu - кучевые, Cb - кучево-дождевые. Подробнее классификацию облаков см. в Атласе облаков (PDF).
T - Температура воздуха - температура, измеренная на высоте 2 м над землей.
Td - Температура точки росы - температура, при понижении до которой содержащийся в воздухе водяной пар достигнет насыщения.
f - Относительная влажность воздуха - влажноcть воздуха, измеренная на высоте 2 м над землей.
Te - Эффективная температура - температура, которую ощущает одетый по сезону человек в тени. Характеристика душности погоды. При расчете учитывается влияние влажности воздуха и скорости ветра на теплоощущения человека.
Tes - Эффективная температура на солнце - температура, которую ощущает человек, с поправкой на солнечный нагрев. Характеристика знойности погоды. Зависит от высоты солнца над горизонтом, облачности и скорости ветра. Ночью, в пасмурную погоду, а также при ветре 12 м/с и более поправка равна нулю.
P - Атмосферное давление - приведенное к уровню моря атмосферное давление.
Po - Атмосферное давление - измеренное на уровне метеостанции атмосферное давление.
Tmin - Минимальная температура - минимум температуры воздуха на высоте 2 м над землей.
Tmax - Максимальная температура - максимум температуры воздуха на высоте 2 м над землей.
R - Количество осадков - Количество выпавших осадков за период времени, мм. При наведении курсора мыши на число - период времени, за который выпало указанное количество осадков.
R24 - Количество осадков - Количество выпавших осадков за 24 часа, мм.
S - Снежный покров - Высота снежного покрова, см. При наведении курсора мыши на число - состояние снежного покрова и степень покрытия местности в баллах.